Tracking 25734 objects as of 28-May-2022
HD Live streaming from Space Station
objects crossing your sky now

COSMOS 1275 DEB

Track COSMOS 1275 DEB now!
10-day predictions


NORAD ID: 42209
Int'l Code: 1981-053TZ
Perigee: 910.3 km
Apogee: 993.2 km
Inclination: 82.9 °
Period: 103.9 minutes
Semi major axis: 7322 km
RCS: Unknown
Launch date: June 4, 1981
Source: Commonwealth of Independent States (former USSR) (CIS)
Launch site: PLESETSK MISSILE AND SPACE COMPLEX (PKMTR)

Note: This is SATELLITE DEBRIS
aabbcc
Your satellite tracking list
Your tracking list is empty




NASA's NSSDC Master Catalog

Two Line Element Set (TLE):
1 42209U 81053TZ  22148.15660946  .00000802  00000-0  68126-3 0  9994
2 42209  82.8780  83.5199 0056585 126.7765 298.4327 13.85455001969832
Source of the keplerian elements: AFSPC